Total_Precipitation_Accumulation
1.13 1.40 2.02 2.88 3.78 3.15 2.39 2.10 1.72 1.40 1.12 0.99 0.92 0.97 1.14 1.37 1.85 2.62 2.88 2.62 1.94 1.80 2.24 3.10 3.30 3.10 2.82 2.40 2.32 2.41 2.47 2.70 2.67 2.42 2.17 1.89 1.70 1.60 1.62 1.48 1.40 1.32 1.19 1.23 1.32 1.31 1.30 1.32 1.27
1.07 1.93 2.63 3.70 3.73 2.66 2.34 2.12 1.76 1.21 0.90 0.70 0.61 0.82 0.98 0.94 1.12 1.91 2.79 2.70 1.81 1.58 1.87 2.47 2.97 2.89 2.65 2.36 2.31 2.42 2.41 2.38 2.32 2.05 1.78 1.68 1.64 1.56 1.46 1.44 1.44 1.32 1.18 1.18 1.22 1.33 1.33 1.28 1.23
1.19 2.11 2.83 3.34 2.70 2.28 2.26 1.99 1.52 1.04 0.74 0.63 0.56 0.62 0.86 1.20 1.50 2.19 2.54 1.91 1.50 1.30 1.71 2.41 2.88 2.67 2.40 2.22 2.23 2.22 2.29 2.23 2.11 1.99 1.79 1.66 1.63 1.56 1.50 1.49 1.46 1.29 1.14 1.03 1.13 1.23 1.22 1.16 1.16
1.59 2.43 2.77 2.56 2.08 1.69 1.67 1.63 1.15 0.94 0.67 0.49 0.50 0.66 0.89 1.41 1.78 2.19 2.15 1.55 1.32 1.29 1.63 2.01 2.35 2.19 2.02 2.01 2.01 1.90 1.75 1.79 1.97 2.00 1.85 1.73 1.56 1.45 1.41 1.41 1.31 1.12 1.01 0.98 1.03 1.11 1.11 1.05 1.08
1.94 2.64 2.71 2.17 1.80 1.55 1.37 1.17 0.93 0.88 0.76 0.59 0.51 0.90 1.41 1.72 1.85 1.90 1.82 1.47 1.33 1.52 1.82 1.88 2.09 1.97 1.92 1.89 1.86 1.71 1.71 1.83 2.00 1.97 1.87 1.77 1.52 1.35 1.34 1.26 1.10 0.92 0.86 0.93 1.07 1.13 1.01 0.94 0.98
2.39 2.59 2.93 2.30 1.86 1.57 1.44 1.11 0.83 0.75 0.68 0.58 0.56 0.90 1.56 1.91 1.88 1.84 1.74 1.54 1.41 1.44 1.62 1.74 2.01 1.97 1.83 1.70 1.71 1.61 1.72 1.99 2.11 2.00 1.93 1.88 1.60 1.37 1.22 1.12 0.98 0.85 0.78 0.85 0.98 1.04 0.95 0.89 0.97
2.54 2.67 2.49 1.95 1.80 1.89 1.49 0.95 0.85 0.80 0.75 0.63 0.52 0.86 1.51 1.91 1.65 1.47 1.50 1.38 1.34 1.31 1.36 1.33 1.43 1.57 1.56 1.58 1.71 1.73 1.89 2.04 2.03 1.86 1.79 1.74 1.42 1.19 1.07 1.02 0.96 0.88 0.87 0.92 0.96 1.04 1.01 0.98 1.05
1.75 1.94 1.94 1.82 1.84 1.84 1.28 0.80 0.69 0.68 0.72 0.48 0.44 0.78 1.38 1.56 1.34 1.36 1.35 1.33 1.35 1.27 1.21 1.08 1.12 1.31 1.44 1.47 1.60 1.76 1.93 1.96 1.92 1.73 1.62 1.48 1.23 1.05 1.05 0.98 0.93 0.86 0.87 0.96 1.02 1.06 1.01 0.99 1.03
1.64 1.95 2.20 2.04 1.77 1.55 1.08 0.85 0.63 0.47 0.52 0.44 0.40 0.49 0.73 0.92 1.05 1.23 1.32 1.26 1.38 1.25 1.11 1.05 0.95 0.99 1.18 1.33 1.39 1.69 1.83 1.84 1.66 1.57 1.58 1.36 1.00 0.89 0.95 0.94 1.07 1.00 1.01 1.05 1.10 1.08 1.00 0.90 0.85
1.62 2.04 2.06 1.49 1.14 1.08 0.99 0.86 0.70 0.65 0.69 0.59 0.52 0.50 0.56 0.73 0.93 1.05 1.13 1.15 1.21 1.21 1.02 0.96 0.89 0.86 0.86 0.94 1.23 1.65 1.50 1.42 1.18 1.14 1.15 1.12 1.02 0.98 0.81 0.91 1.17 1.19 1.13 1.08 1.09 1.05 0.85 0.65 0.59
1.32 1.45 1.31 1.19 0.86 0.74 0.88 0.83 0.64 0.69 0.80 0.63 0.58 0.56 0.57 0.67 0.75 0.85 0.91 0.93 0.95 1.03 0.98 0.92 0.83 0.76 0.80 0.91 1.02 1.22 1.26 1.26 1.10 0.96 0.93 1.01 0.96 0.86 0.75 0.74 0.85 0.95 1.00 0.87 0.83 0.81 0.63 0.58 0.61
1.16 1.06 0.91 0.87 0.69 0.71 0.90 0.78 0.66 0.76 0.73 0.49 0.40 0.42 0.54 0.64 0.67 0.69 0.77 0.90 0.94 0.99 0.99 0.95 0.87 0.85 0.83 0.78 0.74 0.80 0.85 0.89 0.92 0.86 0.82 0.93 0.88 0.82 0.80 0.81 0.76 0.78 0.81 0.87 0.81 0.77 0.67 0.64 0.65
1.08 0.99 0.81 0.66 0.69 0.72 0.79 0.83 0.72 0.73 0.61 0.49 0.42 0.51 0.59 0.61 0.61 0.63 0.68 0.81 0.88 0.94 1.00 0.96 0.87 0.84 0.85 0.79 0.69 0.67 0.75 0.79 0.86 0.90 0.82 0.82 0.86 0.85 0.79 0.75 0.80 0.80 0.79 0.82 0.81 0.72 0.68 0.69 0.65
1.01 0.93 0.85 0.72 0.70 0.73 0.80 0.84 0.79 0.86 0.67 0.55 0.47 0.53 0.56 0.58 0.61 0.64 0.66 0.74 0.79 0.81 0.98 1.01 0.92 0.92 0.90 0.83 0.73 0.72 0.78 0.87 0.87 0.75 0.70 0.73 0.76 0.79 0.87 0.88 0.88 0.88 0.87 0.94 0.94 0.74 0.76 0.82 0.77
0.90 0.95 0.93 0.84 0.81 0.79 0.84 1.06 0.96 0.88 0.75 0.72 0.60 0.52 0.53 0.54 0.55 0.62 0.61 0.68 0.76 0.84 0.98 1.00 0.97 1.07 0.99 0.90 0.87 0.78 0.80 0.85 0.88 0.83 0.77 0.78 0.78 0.80 0.90 0.97 0.98 0.95 0.92 0.97 1.22 1.08 0.84 0.82 0.82
1.02 1.12 1.28 0.90 0.80 0.83 0.99 1.21 0.91 0.88 0.86 0.93 0.75 0.62 0.57 0.55 0.54 0.53 0.53 0.65 0.70 0.87 0.97 1.09 0.99 1.10 1.09 1.01 1.00 0.92 0.91 0.97 0.97 0.96 0.96 0.90 0.88 0.90 0.98 1.04 0.94 0.98 1.06 1.13 1.32 1.39 1.08 0.88 0.87
1.17 1.26 1.23 0.95 0.72 0.76 0.88 0.99 0.81 0.77 0.75 0.77 0.73 0.65 0.64 0.53 0.50 0.47 0.48 0.56 0.63 0.81 0.93 1.09 1.09 1.07 1.14 1.18 1.20 1.11 1.07 1.09 1.07 1.04 1.00 0.99 1.01 1.07 1.14 1.15 1.08 1.07 1.10 1.23 1.25 1.46 1.44 1.23 1.12
1.10 0.98 0.93 0.84 0.73 0.74 0.75 0.67 0.66 0.65 0.67 0.63 0.64 0.61 0.56 0.49 0.49 0.47 0.42 0.45 0.52 0.70 0.85 1.01 1.17 1.29 1.36 1.40 1.45 1.41 1.29 1.21 1.24 1.24 1.21 1.22 1.29 1.25 1.29 1.32 1.33 1.40 1.38 1.39 1.35 1.53 1.65 1.45 1.42
0.76 0.75 0.77 0.66 0.59 0.62 0.57 0.51 0.55 0.59 0.62 0.56 0.57 0.56 0.47 0.42 0.46 0.44 0.38 0.41 0.46 0.58 0.70 0.88 1.27 1.71 1.89 1.79 1.77 1.83 1.87 1.81 1.71 1.67 1.65 1.70 1.70 1.70 1.73 1.70 1.67 1.65 1.61 1.68 1.68 1.96 2.31 1.83 1.60
0.71 0.76 0.78 0.68 0.50 0.50 0.50 0.44 0.44 0.50 0.51 0.48 0.45 0.48 0.44 0.39 0.37 0.35 0.33 0.37 0.41 0.59 0.76 0.90 1.19 1.64 1.85 1.98 2.10 2.30 2.46 2.31 2.16 2.14 2.11 2.17 2.19 2.36 2.29 2.27 2.26 2.18 2.20 2.17 2.09 2.21 2.56 2.20 1.94
0.71 0.73 0.72 0.65 0.51 0.46 0.45 0.47 0.42 0.47 0.41 0.39 0.39 0.41 0.36 0.30 0.29 0.31 0.31 0.35 0.39 0.53 0.68 0.85 1.05 1.34 1.68 1.95 2.21 2.48 2.70 2.68 2.55 2.37 2.35 2.41 2.48 2.62 2.72 2.70 2.77 2.61 2.50 2.54 2.45 2.41 2.62 2.68 2.38
0.74 0.50 0.46 0.46 0.60 0.62 0.47 0.70 0.50 0.48 0.44 0.39 0.39 0.39 0.37 0.31 0.30 0.34 0.33 0.35 0.40 0.48 0.60 0.78 1.00 1.23 1.46 1.69 2.09 2.51 2.80 2.90 2.80 2.69 2.65 2.63 2.63 2.67 2.86 2.88 3.00 2.85 2.76 2.74 2.63 2.44 2.62 2.96 2.90
0.56 0.43 0.44 0.46 0.55 0.52 0.37 0.51 0.50 0.41 0.43 0.38 0.35 0.33 0.33 0.31 0.33 0.37 0.37 0.42 0.48 0.53 0.60 0.76 0.93 1.16 1.39 1.61 1.97 2.35 2.61 2.81 2.93 2.76 2.63 2.65 2.67 2.68 2.82 2.96 3.06 2.92 2.82 2.77 2.85 2.75 2.72 2.68 2.70
0.44 0.48 0.47 0.50 0.57 0.61 0.30 0.43 0.55 0.38 0.35 0.35 0.31 0.28 0.30 0.33 0.39 0.43 0.53 0.60 0.63 0.59 0.66 0.79 0.92 1.09 1.24 1.35 1.56 1.78 2.12 2.34 2.66 2.64 2.57 2.70 2.67 2.59 2.52 2.69 2.93 2.86 2.86 2.85 2.93 2.99 2.94 2.93 2.95
0.43 0.67 0.88 0.90 0.87 0.58 0.24 0.39 0.54 0.39 0.31 0.32 0.32 0.30 0.30 0.35 0.42 0.51 0.65 0.74 0.78 0.70 0.69 0.76 0.92 1.01 1.10 1.19 1.27 1.39 1.62 1.75 2.11 2.42 2.40 2.32 2.37 2.42 2.48 2.52 2.53 2.52 2.62 2.77 2.97 2.95 2.87 2.86 2.96
0.36 0.57 0.92 1.05 0.93 0.59 0.39 0.56 0.60 0.45 0.36 0.32 0.31 0.34 0.38 0.43 0.49 0.67 0.85 0.91 0.91 0.83 0.78 0.85 1.00 1.08 1.12 1.15 1.18 1.25 1.33 1.39 1.55 1.76 1.87 1.89 1.93 2.16 2.28 2.39 2.35 2.35 2.43 2.54 2.67 2.68 2.72 2.68 2.66
0.33 0.40 0.45 0.64 0.62 0.66 0.61 0.68 0.61 0.41 0.39 0.39 0.41 0.46 0.57 0.65 0.70 0.84 1.00 1.09 1.01 0.90 0.83 0.90 1.04 1.18 1.21 1.23 1.27 1.34 1.32 1.27 1.35 1.37 1.49 1.67 1.70 1.76 1.89 1.99 2.09 2.22 2.28 2.36 2.52 2.57 2.56 2.58 2.57
0.24 0.31 0.48 0.70 0.90 0.93 0.74 0.74 0.72 0.60 0.55 0.52 0.56 0.61 0.73 0.83 0.92 1.00 1.15 1.20 1.08 0.97 0.89 0.95 1.06 1.18 1.37 1.50 1.43 1.39 1.44 1.46 1.65 1.68 1.52 1.47 1.61 1.66 1.70 1.76 1.84 2.01 2.12 2.20 2.28 2.39 2.50 2.48 2.48
0.28 0.38 0.54 0.73 0.77 1.05 1.17 1.06 0.82 0.74 0.73 0.76 0.80 0.84 0.90 1.02 1.03 1.02 1.13 1.21 1.12 0.95 0.89 0.89 0.95 1.07 1.20 1.24 1.29 1.26 1.34 1.44 1.68 1.88 1.84 1.64 1.60 1.60 1.59 1.56 1.62 1.78 1.90 2.01 2.13 2.20 2.20 2.20 2.32
0.37 0.48 0.70 1.08 1.03 0.94 1.15 1.13 0.80 0.73 0.77 0.78 0.79 0.79 0.83 0.93 0.93 0.98 1.03 0.99 0.92 0.79 0.73 0.74 0.77 0.89 1.04 1.04 1.10 1.18 1.19 1.29 1.40 1.53 1.56 1.47 1.35 1.31 1.35 1.40 1.40 1.49 1.69 1.84 1.85 1.89 1.89 1.92 2.03